Location: Kunchanapalle
(16.4623°N, 80.6176°E)
Time: 17:24:26
(UTC+00:00)

Cosmos 1633 Rocket - Pass Details

Date: 13 August 2020
Orbit: 606 x 625 km, 82.5° (Epoch: 17 September)

Event Time Altitude Azimuth Distance (km) Brightness Sun altitude
Exits shadow 14:06:00 21° 81° (E) 1,387 4.3 -15.1°
Drops below altitude 10° 14:08:55 10° 41° (NE) 1,991 5.5 -15.8°
Sets 14:11:32 0° 26° (NNE) 2,897 6.5 -16.4°
